"Pseudo-MPEC" for C0GPFH5

Created 2023 Mar 20 8:22:05 UT using Find_Orb

Click here for an explanation of pseudo-MPECs

 
 Astrometry: 
     C0GPFH5* C2023 03 14\TAstrometry)@0/\oTt0(4Yqdy2u*QXZOR6[eb5sEredacted;UV00
     C0GPFH5  C2023 03 14*T7Sb2cjvbdOt9ZKL6_!Bv[#;C95BclickHsQ`L9Li*eFjhereotV00
     C0GPFH5  C2023 03 14]O/e_e-[FewD$f@L_qf1elTor?o4iT=ic(O(jd)U;'3'G_@sQ^r+V00
     C0GPFH5  C2023 03 14-E%amk;for15Ym;](DlD%%%MeFEQ^=7kbG$/8explanation?t'xV00

Station data:
(V00) Kitt Peak-Bok  (N31.963125 W111.600190)  US/Arizona.  Observers T. A.
   Pruyne, B. M. Africano, E. J. Christensen, G. A. Farneth, D. C. Fuls, A.
   R. Gibbs, A. D. Grauer, H. Gröller, J. A. Johnson, R. A. Kowalski, S. M.
   Larson, G. J. Leonard, D. Rankin, R. L. Seaman, F. C. Shelly, K. W.
   Wierzchoś. 2.25-m reflector + CCD.

Orbital elements:  C0GPFH5
   Perigee 2023 Mar 1.50565 +/- 115 TT = 12:08:08 (JD 2460005.00565)
Epoch 2023 Mar 14.0 TT = JDT 2460017.5                           AutoNEOCP
M 122.01106560 +/- 80               (J2000 equator)
n   9.76529791 +/- 0.501            Peri.  272.74636 +/- 60
a467892.957 +/- 5.3e+7              Node    85.40190 +/- 60
e   0.9281217 +/- 0.235             Incl.   34.28082 +/- 40
P  36.86d                  H 33.00  G  0.15   U 12.3  SR
q 33631.3064 +/- 7.63e+7    Q 902154.607 +/- 2.6e+9
From 4 observations 2023 Mar. 14 (21.6 min); mean residual 0".15
Residuals in arcseconds: 
230314 V00  .03-  .14+    230314 V00  .10+  .29-    
230314 V00  .01-  .06-    230314 V00  .06-  .22+    

Ephemerides (geocentric):
Date (UTC) HH   RA             Dec           delta  r     elong  mag " sig PA
---- --------  ------------   ------------  ------ ------ -----  --- --------
2023 03 20 08  11 55 21.808   +33 52 14.69  909539 1.0008 146.5 23.4  22d 172
2023 03 20 09  11 55 32.551   +33 51 50.37  909594 1.0008 146.5 23.4  22d 172
2023 03 20 10  11 55 43.288   +33 51 25.81  909643 1.0008 146.5 23.4  23d 172
2023 03 20 11  11 55 54.022   +33 51 01.01  909688 1.0008 146.4 23.4  23d 172
2023 03 20 12  11 56 04.750   +33 50 35.96  909728 1.0008 146.4 23.4  23d 172
2023 03 20 13  11 56 15.474   +33 50 10.68  909762 1.0008 146.4 23.4  23d 171
2023 03 20 14  11 56 26.193   +33 49 45.15  909792 1.0009 146.4 23.4  23d 171
2023 03 20 15  11 56 36.909   +33 49 19.37  909817 1.0009 146.4 23.4  23d 171
2023 03 20 16  11 56 47.620   +33 48 53.35  909837 1.0009 146.4 23.4  23d 171
2023 03 20 17  11 56 58.328   +33 48 27.08  909852 1.0009 146.4 23.4  23d 171
2023 03 20 18  11 57 09.032   +33 48 00.57  909862 1.0009 146.4 23.4  23d 171
2023 03 20 19  11 57 19.733   +33 47 33.81  909867 1.0009 146.4 23.4  23d 171
2023 03 20 20  11 57 30.430   +33 47 06.80  909867 1.0009 146.4 23.4  23d 171
2023 03 20 21  11 57 41.124   +33 46 39.54  909862 1.0009 146.4 23.4  23d 171
2023 03 20 22  11 57 51.816   +33 46 12.03  909852 1.0010 146.3 23.4  23d 171
2023 03 20 23  11 58 02.504   +33 45 44.27  909837 1.0010 146.3 23.4  23d 171
2023 03 21 00  11 58 13.190   +33 45 16.25  909817 1.0010 146.3 23.4  23d 171
2023 03 21 01  11 58 23.873   +33 44 47.99  909793 1.0010 146.3 23.4  23d 171
2023 03 21 02  11 58 34.554   +33 44 19.47  909763 1.0010 146.3 23.4  24d 171
2023 03 21 03  11 58 45.234   +33 43 50.69  909729 1.0010 146.3 23.4  24d 171
2023 03 21 04  11 58 55.911   +33 43 21.67  909689 1.0010 146.3 23.4  24d 171
2023 03 21 05  11 59 06.586   +33 42 52.38  909645 1.0010 146.3 23.4  24d 171
2023 03 21 06  11 59 17.260   +33 42 22.84  909595 1.0010 146.3 23.4  24d 171
2023 03 21 07  11 59 27.932   +33 41 53.04  909541 1.0010 146.3 23.4  24d 171
2023 03 21 08  11 59 38.604   +33 41 22.99  909481 1.0011 146.3 23.4  24d 171
2023 03 21 09  11 59 49.274   +33 40 52.67  909417 1.0011 146.3 23.4  24d 171
2023 03 21 10  11 59 59.943   +33 40 22.10  909348 1.0011 146.2 23.4  24d 171
2023 03 21 11  12 00 10.612   +33 39 51.27  909273 1.0011 146.2 23.4  24d 171
2023 03 21 12  12 00 21.279   +33 39 20.17  909194 1.0011 146.2 23.4  24d 171
2023 03 21 13  12 00 31.947   +33 38 48.81  909110 1.0011 146.2 23.4  24d 171
2023 03 21 14  12 00 42.614   +33 38 17.19  909021 1.0011 146.2 23.4  24d 170
2023 03 21 15  12 00 53.282   +33 37 45.30  908926 1.0011 146.2 23.4  24d 170
2023 03 21 16  12 01 03.949   +33 37 13.15  908827 1.0011 146.2 23.4  24d 170
2023 03 21 17  12 01 14.617   +33 36 40.74  908723 1.0012 146.2 23.4  24d 170
2023 03 21 18  12 01 25.285   +33 36 08.06  908614 1.0012 146.2 23.4  24d 170
2023 03 21 19  12 01 35.954   +33 35 35.11  908500 1.0012 146.2 23.4  24d 170
2023 03 21 20  12 01 46.624   +33 35 01.89  908381 1.0012 146.2 23.4  24d 170
2023 03 21 21  12 01 57.294   +33 34 28.41  908257 1.0012 146.2 23.4  24d 170
2023 03 21 22  12 02 07.966   +33 33 54.66  908128 1.0012 146.2 23.4  24d 170
2023 03 21 23  12 02 18.639   +33 33 20.63  907994 1.0012 146.1 23.4  24d 170
2023 03 22 00  12 02 29.313   +33 32 46.34  907854 1.0012 146.1 23.4  24d 170
2023 03 22 01  12 02 39.990   +33 32 11.77  907710 1.0012 146.1 23.4  24d 170
2023 03 22 02  12 02 50.668   +33 31 36.93  907561 1.0013 146.1 23.4  24d 170
2023 03 22 03  12 03 01.348   +33 31 01.81  907407 1.0013 146.1 23.4  24d 170
2023 03 22 04  12 03 12.030   +33 30 26.43  907248 1.0013 146.1 23.4  24d 170
2023 03 22 05  12 03 22.714   +33 29 50.76  907084 1.0013 146.1 23.4  24d 170
2023 03 22 06  12 03 33.401   +33 29 14.82  906915 1.0013 146.1 23.4  24d 170
2023 03 22 07  12 03 44.091   +33 28 38.61  906740 1.0013 146.1 23.4  24d 170